Preview of NWS' New Version of Forecast
This preview is not operational and should not be used for support decisions.

Regional Weather Roundup (RWR)

Issued by National Weather Service (NWS)

                            
000
ASUS43 KTOP 201808
RWRKS 

WEATHER ROUNDUP FOR KANSAS
NATIONAL WEATHER SERVICE GOODLAND KS
100 PM CDT WED MAR 20 2019

NOTE:  "FAIR" INDICATES FEW OR NO CLOUDS BELOW 12,000 FEET WITH NO
SIGNIFICANT WEATHER AND/OR OBSTRUCTIONS TO VISIBILITY.

KSZ001>006-013>018-027>032-041>047-201900-
NORTHWEST KANSAS
  
CITY           SKY/WX    TMP DP  RH WIND       PRES   REMARKS
GOODLAND       SUNNY     55  17  22 NW22G35   30.22F                  
6HR MIN TEMP:  24; 6HR MAX TEMP:  55;                                

HAYS           SUNNY     55  27  34 W16G26    30.21F                  
HILL CITY      SUNNY     55  29  36 W15G23    30.20F                  
6HR MIN TEMP:  27; 6HR MAX TEMP:  55;                                

RUSSELL        SUNNY     56  30  37 W18G25    30.19F                  
6HR MIN TEMP:  30; 6HR MAX TEMP:  56;                                

$$

KSZ061>065-074>080-084>089-201900-
SOUTHWEST KANSAS
  
CITY           SKY/WX    TMP DP  RH WIND       PRES   REMARKS
DODGE CITY     SUNNY     55  23  28 NW18G25   30.24F                  
6HR MIN TEMP:  29; 6HR MAX TEMP:  55;                                

ELKHART        SUNNY     58  24  27 W15G22    30.29F                  
GARDEN CITY    SUNNY     54  20  26 NW13G26   30.25F                  
6HR MIN TEMP:  21; 6HR MAX TEMP:  54;                                

GREAT BEND     SUNNY     54  27  35 NW14G22   30.22F                  
LIBERAL        SUNNY     56  19  23 NW18G25   30.29F                  
PRATT          SUNNY     54  23  29 NW17      30.24F                  
6HR MIN TEMP:  27; 6HR MAX TEMP:  55;                                

$$

KSZ066>073-081>083-090>101-201900-
SOUTHEAST KANSAS
  
CITY           SKY/WX    TMP DP  RH WIND       PRES   REMARKS
CHANUTE        PTSUNNY   54  41  61 NW13      30.20F                  
6HR MIN TEMP:  45; 6HR MAX TEMP:  54;                                

COFFEYVILLE    CLOUDY    53  39  59 NW12      30.21F                  
6HR MIN TEMP:  43; 6HR MAX TEMP:  54;                                

HUTCHINSON     MOSUNNY   54  32  43 NW14G24   30.22F                  
6HR MIN TEMP:  32; 6HR MAX TEMP:  55;                                

MEDICINE LODGE   N/A     56  28  34 NW16G24   30.24F                  
NEWTON         SUNNY     54  36  50 NW14G24   30.21F                  
PARSONS        CLOUDY    52  40  63 NW9       30.21F                  
6HR MIN TEMP:  42; 6HR MAX TEMP:  53;                                

WICHITA INTL   MOSUNNY   54  36  50 W13G29    30.23F                  
6HR MIN TEMP:  38; 6HR MAX TEMP:  54;                                

WICHITA JABRA  MOSUNNY   52  35  52 NW14G21   30.22F                  
6HR MIN TEMP:  38; 6HR MAX TEMP:  53;                                

WICHITA MCCONL SUNNY     54  35  49 NW12G22   30.22F                  
WINFIELD       MOSUNNY   55  37  50 W15       30.25F                  
6HR MIN TEMP:  37; 6HR MAX TEMP:  55;                                

$$

KSZ007>012-019>026-033>040-048>060-102>105-201900-
NORTHEAST KANSAS
  
CITY           SKY/WX    TMP DP  RH WIND       PRES   REMARKS
CONCORDIA      SUNNY     52  35  52 W15G25    30.16F                  
6HR MIN TEMP:  35; 6HR MAX TEMP:  52;                                

EMPORIA        SUNNY     53  36  52 W20G26    30.18F                  
6HR MIN TEMP:  41; 6HR MAX TEMP:  53;                                

LAWRENCE       MOSUNNY   52  40  63 W14       30.16F                  
6HR MIN TEMP:  43; 6HR MAX TEMP:  52;                                

MANHATTAN      SUNNY     54  37  52 W14G22    30.17F                  
6HR MIN TEMP:  42; 6HR MAX TEMP:  55;                                

MARYSVILLE     SUNNY     52  36  54 W14       30.13F                  
OLATHE IND     PTSUNNY   51  41  68 W16G22    30.15F                  
6HR MIN TEMP:  42; 6HR MAX TEMP:  51;                                

OLATHE EXE     CLOUDY    51  40  65 W8G18     30.14F                  
6HR MIN TEMP:  41; 6HR MAX TEMP:  51;                                

SALINA         SUNNY     54  33  45 NW14G25   30.20F                  
6HR MIN TEMP:  37; 6HR MAX TEMP:  55;                                

TOPEKA BILLARD SUNNY     53  39  59 W9G20     30.15F                  
6HR MIN TEMP:  42; 6HR MAX TEMP:  53;                                

TOPEKA FORBES  MOSUNNY   53  37  54 W18       30.15F                  
6HR MIN TEMP:  42; 6HR MAX TEMP:  53;                                

$$